Location: Unspecified
(35.6961°N, 0.0000°E)
Time: 10:48:49
(UTC+00:00)

Hubble Space Telescope - Pass Details

Date: 26 April 2019
Orbit: 537 x 540 km, 28.5° (Epoch: 23 May)

Event Time Altitude Azimuth Distance (km) Brightness Sun altitude
Exits shadow 04:23:50 13° 226° (SW) 1,601 2.6 -10.4°
Maximum altitude 04:26:45 27° 172° (S) 1,056 2.1 -9.8°
Drops below altitude 10° 04:30:15 10° 114° (ESE) 1,787 4.1 -9.2°
Sets 04:32:46 0° 102° (ESE) 2,678 5.3 -8.7°
